Regional Weather Roundup
Issued by NWS Little Rock, AR

Home | Current Version | Previous Version | Text Only | Print | Product List | Glossary Off
Versions: 1 2 3 4 5 6 7 8 9 10 11 12 13 14 15 16 17 18 19 20 21 22 23 24 25 26 27 28 29 30 31 32 33 34 35 36 37 38 39 40 41 42 43 44 45 46 47 48 49 50

517
ASUS44 KLZK 281505
RWRLZK

WEATHER ROUNDUP FOR ARKANSAS
NATIONAL WEATHER SERVICE LITTLE ROCK AR
1000 AM CDT FRI APR 28 2017

NOTE: "FAIR" INDICATES FEW OR NO CLOUDS BELOW 12,000 FEET WITH NO
SIGNIFICANT WEATHER AND/OR OBSTRUCTIONS TO VISIBILITY.

ARZ001-003-010-029-281600-
NORTHWEST ARKANSAS

CITY           SKY/WX    TMP DP  RH WIND       PRES   REMARKS
FAYETTEVILLE   CLOUDY    64  60  87 S12       29.67R
FORT SMITH     CLOUDY    63  55  75 E9        29.67S
HARRISON       CLOUDY    57  54  89 E10       29.71F
BENTONVILLE    CLOUDY    61  55  82 SE8       29.67S
ROGERS         CLOUDY    60  55  83 SE9       29.68S
SILOAM SPGS    CLOUDY    63  55  77 S9        29.66S
HIGHFILL       CLOUDY    62  58  86 SE8       29.66S
SPRINGDALE     CLOUDY    63  59  88 SE5G12    29.69R
$$

ARZ004-005-016-281600-
NORTH CENTRAL ARKANSAS

CITY           SKY/WX    TMP DP  RH WIND       PRES   REMARKS
BATESVILLE     CLOUDY    61  55  82 E9        29.77F
FLIPPIN        CLOUDY   N/A N/A N/A E8        29.70F
MTN HOME       CLOUDY    60  54  80 SE8       29.73F
$$

ARZ040-041-281600-
WEST CENTRAL ARKANSAS

CITY           SKY/WX    TMP DP  RH WIND       PRES   REMARKS
MENA           CLOUDY    68  68 100 CALM      29.70S
MOUNT IDA      CLOUDY    64  60  87 VRB3      29.68F
$$

ARZ009-017-025-026-028-281600-
NORTHEAST ARKANSAS

CITY           SKY/WX    TMP DP  RH WIND       PRES   REMARKS
JONESBORO      PTSUNNY   66  58  75 E10       29.78F
NEWPORT        PTSUNNY   63  58  83 SE8       29.79
WALNUT RIDGE   CLOUDY    64  55  72 E8        29.79S
BLYTHEVILLE    MOSUNNY   70  61  73 S15       29.81F
NW BLYTHEVILLE PTSUNNY   70  61  73 S7        29.80F
$$

ARZ022-023-033-042-044-281600-
CENTRAL ARKANSAS

CITY           SKY/WX    TMP DP  RH WIND       PRES   REMARKS
LITTLE ROCK    CLOUDY    63  61  93 SE9G21    29.74F
N LITTLE ROCK    N/A     62  58  90 SE8       29.74F
JACKSONVILLE   CLOUDY    63  60  88 E5        29.73F
CONWAY           N/A     63  59  88 SE7       29.72S
SEARCY         CLOUDY    63  60  90 E5        29.77F
HOT SPRINGS    CLOUDY    63  61  93 SE10      29.73S
RUSSELLVILLE   CLOUDY    61  56  83 E8G17     29.70F
CLINTON          N/A     61  57  88 E7        29.75S
$$

ARZ036-281600-
EAST ARKANSAS

CITY           SKY/WX    TMP DP  RH WIND       PRES   REMARKS
WEST MEMPHIS   CLOUDY    67  63  87 S10       29.79F
$$

ARZ050-053-066-070-073-281600-
SOUTHWEST ARKANSAS

CITY           SKY/WX    TMP DP  RH WIND       PRES   REMARKS
ARKADELPHIA    CLOUDY    64  62  93 S5        29.73S
CAMDEN         PTSUNNY   66  61  82 SE5       29.74F
TEXARKANA      CLOUDY    70  67  90 S14       29.69F
EL DORADO      CLOUDY    68  66  93 E3        29.74S
DE QUEEN       CLOUDY    64  61  90 E7        29.69R
$$

ARZ056-057-069-281600-
SOUTHEAST ARKANSAS

CITY           SKY/WX    TMP DP  RH WIND       PRES   REMARKS
PINE BLUFF     CLOUDY    66  62  87 SE10      29.76S
STUTTGART      CLOUDY    66  54  63 SE10G16   29.76F
MONTICELLO     CLOUDY    70  66  87 SE3       29.76S

$$






USA.gov is the U.S. government's official web portal to all federal, state and local government web resources and services.